Time,TemperatureF,DewpointF,PressureIn,WindDirection,WindDirectionDegrees,WindSpeedMPH,WindSpeedGustMPH,Humidity,HourlyPrecipIn,Conditions,Clouds,dailyrainin,SoftwareType,DateUTC
2015-05-04 00:10:00,59.8,54.0,30.18,WSW,250,0.0,-999.0,80,-99.99,,,0.00,weatherlink.com 1.10,2015-05-04 04:10:00,
2015-05-04 00:25:00,59.7,54.0,30.18,WSW,250,0.0,-999.0,80,-99.99,,,0.00,weatherlink.com 1.10,2015-05-04 04:25:00,
2015-05-04 00:40:00,59.8,54.0,30.19,WSW,250,0.0,-999.0,81,-99.99,,,0.00,weatherlink.com 1.10,2015-05-04 04:40:00,
2015-05-04 00:55:00,59.9,53.0,30.19,WSW,250,0.0,-999.0,79,-99.99,,,0.00,weatherlink.com 1.10,2015-05-04 04:55:00,
2015-05-04 01:10:00,60.1,54.0,30.19,WSW,250,0.0,-999.0,79,-99.99,,,0.00,weatherlink.com 1.10,2015-05-04 05:10:00,
2015-05-04 01:25:00,61.0,53.0,30.19,SSW,207,0.0,-999.0,75,-99.99,,,0.00,weatherlink.com 1.10,2015-05-04 05:25:00,
2015-05-04 01:40:00,62.0,53.0,30.20,SSW,207,0.0,-999.0,72,-99.99,,,0.00,weatherlink.com 1.10,2015-05-04 05:40:00,
2015-05-04 01:55:00,62.4,52.0,30.20,SSW,207,0.0,-999.0,70,-99.99,,,0.00,weatherlink.com 1.10,2015-05-04 05:55:00,
2015-05-04 02:10:00,62.5,53.0,30.20,SSW,207,0.0,-999.0,70,-99.99,,,0.00,weatherlink.com 1.10,2015-05-04 06:10:00,
2015-05-04 02:25:00,62.5,52.0,30.20,SSW,207,0.0,-999.0,69,-99.99,,,0.00,weatherlink.com 1.10,2015-05-04 06:25:00,
2015-05-04 02:40:00,62.6,52.0,30.20,WSW,242,0.0,-999.0,68,-99.99,,,0.00,weatherlink.com 1.10,2015-05-04 06:40:00,
2015-05-04 02:56:00,62.2,52.0,30.20,NW,312,0.0,-999.0,69,-99.99,,,0.00,weatherlink.com 1.10,2015-05-04 06:56:00,
2015-05-04 03:11:00,61.7,52.0,30.21,WNW,284,0.0,-999.0,70,-99.99,,,0.00,weatherlink.com 1.10,2015-05-04 07:11:00,
2015-05-04 03:26:00,61.2,52.0,30.21,WNW,284,0.0,-999.0,71,-99.99,,,0.00,weatherlink.com 1.10,2015-05-04 07:26:00,
2015-05-04 03:41:00,60.9,51.0,30.21,WNW,300,0.0,-999.0,71,-99.99,,,0.00,weatherlink.com 1.10,2015-05-04 07:41:00,
2015-05-04 03:56:00,60.4,51.0,30.21,WNW,300,0.0,-999.0,72,-99.99,,,0.00,weatherlink.com 1.10,2015-05-04 07:56:00,
2015-05-04 04:11:00,60.0,52.0,30.21,WNW,300,0.0,-999.0,74,-99.99,,,0.00,weatherlink.com 1.10,2015-05-04 08:11:00,
2015-05-04 04:26:00,59.4,51.0,30.21,WNW,300,0.0,-999.0,74,-99.99,,,0.00,weatherlink.com 1.10,2015-05-04 08:26:00,
2015-05-04 04:41:00,59.0,51.0,30.21,West,271,0.0,-999.0,75,-99.99,,,0.00,weatherlink.com 1.10,2015-05-04 08:41:00,
2015-05-04 04:56:00,58.5,51.0,30.21,SSE,160,0.0,-999.0,77,-99.99,,,0.00,weatherlink.com 1.10,2015-05-04 08:56:00,
2015-05-04 05:11:00,58.0,51.0,30.21,SSE,160,0.0,-999.0,78,-99.99,,,0.00,weatherlink.com 1.10,2015-05-04 09:11:00,
2015-05-04 05:26:00,57.7,51.0,30.22,SSE,165,0.0,-999.0,79,-99.99,,,0.00,weatherlink.com 1.10,2015-05-04 09:26:00,
2015-05-04 05:41:00,57.5,51.0,30.22,SSE,165,0.0,-999.0,80,-99.99,,,0.00,weatherlink.com 1.10,2015-05-04 09:41:00,
2015-05-04 05:56:00,57.5,51.0,30.23,SSE,165,0.0,-999.0,80,-99.99,,,0.00,weatherlink.com 1.10,2015-05-04 09:56:00,
2015-05-04 06:11:00,58.1,52.0,30.23,SSE,165,0.0,-999.0,79,-99.99,,,0.00,weatherlink.com 1.10,2015-05-04 10:11:00,
2015-05-04 06:26:00,58.0,52.0,30.25,SSE,165,0.0,-999.0,81,-99.99,,,0.00,weatherlink.com 1.10,2015-05-04 10:26:00,
2015-05-04 06:41:00,57.7,52.0,30.25,SSE,165,0.0,-999.0,82,-99.99,,,0.00,weatherlink.com 1.10,2015-05-04 10:41:00,
2015-05-04 06:56:00,57.7,53.0,30.26,SSE,165,0.0,-999.0,83,-99.99,,,0.00,weatherlink.com 1.10,2015-05-04 10:56:00,
2015-05-04 07:11:00,58.3,54.0,30.26,SSE,165,0.0,-999.0,84,-99.99,,,0.00,weatherlink.com 1.10,2015-05-04 11:11:00,
2015-05-04 07:26:00,59.8,54.0,30.27,SSE,165,0.0,-999.0,80,-99.99,,,0.00,weatherlink.com 1.10,2015-05-04 11:26:00,
2015-05-04 07:41:00,60.9,54.0,30.27,SSE,167,0.0,-999.0,78,-99.99,,,0.00,weatherlink.com 1.10,2015-05-04 11:41:00,
2015-05-04 07:56:00,61.5,54.0,30.27,SSE,167,0.0,-999.0,76,-99.99,,,0.00,weatherlink.com 1.10,2015-05-04 11:56:00,
2015-05-04 08:12:00,62.0,54.0,30.28,SSE,167,0.0,-999.0,75,-99.99,,,0.00,weatherlink.com 1.10,2015-05-04 12:12:00,
2015-05-04 08:26:00,62.5,55.0,30.28,SSE,167,0.0,-999.0,75,-99.99,,,0.00,weatherlink.com 1.10,2015-05-04 12:26:00,
2015-05-04 08:41:00,63.3,55.0,30.28,West,271,0.0,-999.0,75,-99.99,,,0.00,weatherlink.com 1.10,2015-05-04 12:41:00,
2015-05-04 08:56:00,64.5,56.0,30.28,West,271,0.0,-999.0,73,-99.99,,,0.00,weatherlink.com 1.10,2015-05-04 12:56:00,
2015-05-04 09:11:00,65.8,57.0,30.28,West,271,0.0,-999.0,72,-99.99,,,0.00,weatherlink.com 1.10,2015-05-04 13:11:00,
2015-05-04 09:27:00,66.9,57.0,30.29,WSW,240,0.0,-999.0,70,-99.99,,,0.00,weatherlink.com 1.10,2015-05-04 13:27:00,
2015-05-04 09:41:00,68.2,58.0,30.29,West,269,0.0,-999.0,69,-99.99,,,0.00,weatherlink.com 1.10,2015-05-04 13:41:00,
2015-05-04 09:57:00,69.6,57.0,30.29,WSW,254,0.0,-999.0,64,-99.99,,,0.00,weatherlink.com 1.10,2015-05-04 13:57:00,
2015-05-04 10:12:00,70.6,58.0,30.29,SW,236,0.0,-999.0,64,-99.99,,,0.00,weatherlink.com 1.10,2015-05-04 14:12:00,
2015-05-04 10:27:00,71.4,57.0,30.29,South,188,0.0,-999.0,60,-99.99,,,0.00,weatherlink.com 1.10,2015-05-04 14:27:00,
2015-05-04 10:42:00,72.4,57.0,30.29,SW,231,0.0,-999.0,59,-99.99,,,0.00,weatherlink.com 1.10,2015-05-04 14:42:00,
2015-05-04 10:57:00,73.4,58.0,30.29,WNW,290,0.0,-999.0,58,-99.99,,,0.00,weatherlink.com 1.10,2015-05-04 14:57:00,
2015-05-04 11:12:00,74.1,57.0,30.29,SSW,213,0.0,-999.0,56,-99.99,,,0.00,weatherlink.com 1.10,2015-05-04 15:12:00,
2015-05-04 11:27:00,74.9,58.0,30.29,NNW,331,0.0,-999.0,56,-99.99,,,0.00,weatherlink.com 1.10,2015-05-04 15:27:00,
2015-05-04 11:42:00,75.9,58.0,30.29,WNW,288,0.0,-999.0,54,-99.99,,,0.00,weatherlink.com 1.10,2015-05-04 15:42:00,
2015-05-04 11:57:00,76.8,58.0,30.28,SSW,211,0.0,-999.0,52,-99.99,,,0.00,weatherlink.com 1.10,2015-05-04 15:57:00,
2015-05-04 12:12:00,77.5,58.0,30.28,West,275,0.0,-999.0,52,-99.99,,,0.00,weatherlink.com 1.10,2015-05-04 16:12:00,
2015-05-04 12:27:00,78.5,56.0,30.27,SSW,212,0.0,-999.0,46,-99.99,,,0.00,weatherlink.com 1.10,2015-05-04 16:27:00,
2015-05-04 12:42:00,80.3,57.0,30.27,SW,225,2.0,-999.0,45,-99.99,,,0.00,weatherlink.com 1.10,2015-05-04 16:42:00,
2015-05-04 12:57:00,81.8,57.0,30.27,NNW,334,0.0,-999.0,43,-99.99,,,0.00,weatherlink.com 1.10,2015-05-04 16:57:00,
2015-05-04 13:12:00,82.1,55.0,30.26,WNW,300,0.0,-999.0,40,-99.99,,,0.00,weatherlink.com 1.10,2015-05-04 17:12:00,
2015-05-04 13:27:00,82.3,55.0,30.26,WSW,250,0.0,-999.0,39,-99.99,,,0.00,weatherlink.com 1.10,2015-05-04 17:27:00,
2015-05-04 13:42:00,82.2,56.0,30.26,WSW,247,0.0,-999.0,40,-99.99,,,0.00,weatherlink.com 1.10,2015-05-04 17:42:00,
2015-05-04 13:57:00,83.5,55.0,30.26,WSW,257,0.0,-999.0,38,-99.99,,,0.00,weatherlink.com 1.10,2015-05-04 17:57:00,
2015-05-04 14:12:00,83.9,55.0,30.26,SSW,207,0.0,-999.0,37,-99.99,,,0.00,weatherlink.com 1.10,2015-05-04 18:12:00,
2015-05-04 14:27:00,84.6,56.0,30.25,WSW,240,0.0,-999.0,37,-99.99,,,0.00,weatherlink.com 1.10,2015-05-04 18:27:00,
2015-05-04 14:42:00,83.7,55.0,30.25,SSW,198,0.0,-999.0,37,-99.99,,,0.00,weatherlink.com 1.10,2015-05-04 18:42:00,